Lincoln, NE

6:36 AM CST on December 12, 2017 (GMT -0600)
Lincoln Municipal

Weather History for KLNK - May, 2013

Change the Weather History Date:

Saturday, May 18, 2013

  Actual Average Record
Temperature  
Mean Temperature 72 °F 63 °F  
Max Temperature 83 °F 75 °F 94 °F (1967)
Min Temperature 61 °F 51 °F 34 °F (2002)
Degree Days  
Heating Degree Days 0 4  
Month to date heating degree days 166 113  
Since 1 July heating degree days 6287 6006  
Cooling Degree Days 7 2  
Month to date cooling degree days 39 25  
Year to date cooling degree days 43 39  
Growing Degree Days 22 (Base 50)    
Moisture  
Dew Point 62 °F    
Average Humidity 79    
Maximum Humidity 100    
Minimum Humidity 58    
Precipitation  
Precipitation 0.70 in 0.15 in 2.41 in (1984)
Month to date precipitation 2.07 2.51  
Year to date precipitation 9.48 8.56  
Snow  
Snow 0.00 in 0.00 in - ()
Month to date snowfall 2.7 0.1  
Since 1 July snowfall 27.5 26.0  
Snow Depth 0.00 in    
Sea Level Pressure  
Sea Level Pressure 29.79 in    
Wind  
Wind Speed 12 mph (SSE)    
Max Wind Speed 28 mph    
Max Gust Speed 37 mph    
Visibility 8 miles    
Events Rain , Thunderstorm    
T = Trace of Precipitation, MM = Missing Value Source: NWS Daily Summary

Daily Weather History Graph

Daily Weather History Graph

Search for Another Location

Airport or City:

Trip Planner

Search our weather history database for the weather conditions in past years. The results will help you decide how hot, cold, wet, or windy it might be!

Date:

Astronomy

May. 18, 2013 Rise Set
Actual Time 6:06 AM CDT 8:40 PM CDT
Civil Twilight 5:35 AM CDT 9:12 PM CDT
Nautical Twilight 4:55 AM CDT 9:51 PM CDT
Astronomical Twilight 4:11 AM CDT 10:36 PM CDT
Moon 1:42 PM CDT (5/18) 2:02 AM CDT (5/18)
Length of Visible Light 15h 37m
Length of Day
14h 34m
First Quarter, 55% of the Moon is Illuminated
May 18
First Quarter
May 24
Full
May 31
Last Quarter
Jun 8
New
Jun 16
First Quarter

Hourly Weather History & Observations

Time (CDT) Temp. Heat Index Dew Point Humidity Pressure Visibility Wind Dir Wind Speed Gust Speed Precip Events Conditions
12:54 AM 68.0 °F - 60.1 °F 76% 29.85 in 10.0 mi South 12.7 mph - N/A   Clear
1:54 AM 66.0 °F - 60.1 °F 81% 29.86 in 10.0 mi South 9.2 mph - N/A   Clear
2:54 AM 64.9 °F - 60.1 °F 84% 29.85 in 10.0 mi SSE 9.2 mph - N/A   Clear
3:54 AM 64.0 °F - 59.0 °F 84% 29.84 in 10.0 mi SSE 8.1 mph - N/A   Clear
4:54 AM 62.1 °F - 59.0 °F 90% 29.85 in 10.0 mi South 6.9 mph - N/A   Clear
5:54 AM 63.0 °F - 59.0 °F 87% 29.86 in 10.0 mi SE 3.5 mph - N/A   Clear
6:54 AM 64.9 °F - 60.1 °F 84% 29.85 in 9.0 mi SE 8.1 mph - N/A   Scattered Clouds
7:54 AM 66.9 °F - 60.1 °F 79% 29.85 in 8.0 mi SSE 10.4 mph - N/A   Overcast
8:54 AM 71.1 °F - 61.0 °F 70% 29.83 in 9.0 mi SE 12.7 mph - N/A   Partly Cloudy
9:54 AM 73.0 °F - 62.1 °F 68% 29.85 in 9.0 mi SE 9.2 mph - N/A   Overcast
10:16 AM 73.4 °F - 62.6 °F 69% 29.88 in 9.0 mi SE 10.4 mph - N/A   Overcast
10:36 AM 75.2 °F - 62.6 °F 65% 29.89 in 9.0 mi SE 8.1 mph - N/A   Mostly Cloudy
10:54 AM 73.9 °F - 63.0 °F 68% 29.86 in 9.0 mi SSE 10.4 mph - N/A   Overcast
11:54 AM 78.1 °F - 64.0 °F 62% 29.82 in 8.0 mi SE 18.4 mph 25.3 mph N/A   Clear
12:54 PM 80.1 °F 81.9 °F 64.9 °F 60% 29.80 in 8.0 mi SE 15.0 mph 23.0 mph N/A   Mostly Cloudy
1:54 PM 80.6 °F 82.3 °F 64.4 °F 58% 29.81 in 8.0 mi SE 17.3 mph 26.5 mph N/A   Mostly Cloudy
2:54 PM 80.1 °F 82.1 °F 66.0 °F 62% 29.78 in 7.0 mi SSE 16.1 mph - N/A   Mostly Cloudy
3:54 PM 81.0 °F 83.3 °F 66.9 °F 62% 29.75 in 7.0 mi South 18.4 mph 27.6 mph N/A   Clear
4:54 PM 82.0 °F 84.5 °F 66.9 °F 60% 29.72 in 7.0 mi SSE 12.7 mph 23.0 mph N/A   Partly Cloudy
5:54 PM 82.0 °F 84.9 °F 68.0 °F 62% 29.69 in 7.0 mi SE 18.4 mph 24.2 mph N/A   Partly Cloudy
6:54 PM 82.0 °F 84.5 °F 66.9 °F 60% 29.68 in 7.0 mi SSE 18.4 mph 25.3 mph N/A   Partly Cloudy
7:54 PM 80.1 °F 82.3 °F 66.9 °F 64% 29.67 in 6.0 mi SE 11.5 mph 20.7 mph N/A   Haze
8:54 PM 77.0 °F - 66.9 °F 71% 29.69 in 7.0 mi South 9.2 mph - N/A   Partly Cloudy
9:54 PM 77.0 °F - 68.0 °F 74% 29.70 in 7.0 mi South 9.2 mph - N/A   Clear
10:33 PM 73.4 °F - 55.4 °F 53% 29.77 in 8.0 mi West 19.6 mph 28.8 mph N/A   Overcast
10:42 PM 69.8 °F - 57.2 °F 64% 29.78 in 10.0 mi West 27.6 mph 36.8 mph N/A   Overcast
10:49 PM 66.2 °F - 60.8 °F 83% 29.79 in 9.0 mi West 10.4 mph 36.8 mph 0.00 in Rain , Thunderstorm Light Thunderstorms and Rain
10:54 PM 64.4 °F - 60.8 °F 88% 29.77 in 4.0 mi West 12.7 mph 18.4 mph N/A Rain , Thunderstorm Thunderstorms and Rain
11:00 PM 62.6 °F - 60.8 °F 94% 29.76 in 1.8 mi West 10.4 mph 18.4 mph 0.05 in Rain , Thunderstorm Heavy Thunderstorms and Rain
11:16 PM 62.6 °F - 60.8 °F 94% 29.74 in 3.0 mi NNW 5.8 mph - 0.23 in Rain , Thunderstorm Light Thunderstorms and Rain
11:28 PM 62.6 °F - 60.8 °F 94% 29.73 in 2.0 mi North 5.8 mph - N/A Rain , Thunderstorm Thunderstorms and Rain
11:38 PM 62.6 °F - 60.8 °F 94% 29.77 in 3.0 mi SSW 11.5 mph - 0.37 in Rain , Thunderstorm Thunderstorms and Rain
11:54 PM 62.1 °F - 62.1 °F 100% 29.75 in 4.0 mi South 11.5 mph - 0.48 in Rain , Thunderstorm Thunderstorms and Rain